| time (UTC) | temp F | wind direction | speed knots | gust knots | rain 1hr in | rain 24hr in | rain mn in | humidity % | barometer mb |
| 20260504200533 | 74 | 349 | 2.6 | 6.1 | 0.00 | 0.00 | 0.00 | 56 | 1010.2 |
| 20260504200030 | 74 | 315 | 1.7 | 1.7 | 0.00 | 0.00 | 0.00 | 57 | 1010.6 |
| 20260504195526 | 74 | 331 | 2.6 | 2.6 | 0.00 | 0.00 | 0.00 | 55 | 1010.5 |
| 20260504195023 | 74 | 8 | 3.5 | 6.1 | 0.00 | 0.00 | 0.00 | 56 | 1010.6 |
| 20260504194519 | 74 | 297 | 6.1 | 7.0 | 0.00 | 0.00 | 0.00 | 55 | 1010.6 |
| 20260504194015 | 73 | 286 | 3.5 | 4.3 | 0.00 | 0.00 | 0.00 | 56 | 1010.6 |
| 20260504193512 | 72 | 295 | 6.1 | 7.8 | 0.00 | 0.00 | 0.00 | 57 | 1010.6 |
| 20260504193011 | 73 | 319 | 3.5 | 5.2 | 0.00 | 0.00 | 0.00 | 58 | 1010.8 |
| 20260504192509 | 72 | 286 | 6.1 | 8.7 | 0.00 | 0.00 | 0.00 | 58 | 1010.7 |
| 20260504192007 | 73 | 286 | 5.2 | 7.8 | 0.00 | 0.00 | 0.00 | 60 | 1010.9 |
| 20260504191504 | 73 | 293 | 2.6 | 4.3 | 0.00 | 0.00 | 0.00 | 59 | 1010.7 |
| 20260504190959 | 71 | 295 | 5.2 | 6.1 | 0.00 | 0.00 | 0.00 | 58 | 1011.1 |
| 20260504190455 | 71 | 310 | 4.3 | 6.1 | 0.00 | 0.00 | 0.00 | 60 | 1010.9 |
| 20260504185952 | 70 | 18 | 3.5 | 5.2 | 0.00 | 0.00 | 0.00 | 58 | 1011.1 |
| 20260504185449 | 70 | 34 | 4.3 | 6.1 | 0.00 | 0.00 | 0.00 | 58 | 1011.1 |
| 20260504184945 | 68 | 297 | 4.3 | 6.1 | 0.00 | 0.00 | 0.00 | 61 | 1011.0 |
| 20260504184441 | 68 | 287 | 3.5 | 6.1 | 0.00 | 0.00 | 0.00 | 63 | 1011.2 |
| 20260504183937 | 67 | 289 | 1.7 | 1.7 | 0.00 | 0.00 | 0.00 | 66 | 1011.2 |
| 20260504183434 | 66 | 294 | 2.6 | 2.6 | 0.00 | 0.00 | 0.00 | 67 | 1011.7 |
| 20260504182933 | 66 | 291 | 4.3 | 6.1 | 0.00 | 0.00 | 0.00 | 66 | 1011.4 |
| 20260504182429 | 66 | 292 | 2.6 | 2.6 | 0.00 | 0.00 | 0.00 | 69 | 1011.8 |
| 20260504181926 | 66 | 287 | 0.9 | 1.7 | 0.00 | 0.00 | 0.00 | 65 | 1011.3 |
| 20260504181423 | 67 | 287 | 3.5 | 4.3 | 0.00 | 0.00 | 0.00 | 61 | 1012.0 |
| 20260504180922 | 67 | 287 | 2.6 | 2.6 | 0.00 | 0.00 | 0.00 | 61 | 1012.8 |
| 20260504180420 | 68 | 287 | 5.2 | 7.0 | 0.00 | 0.00 | 0.00 | 58 | 1012.8 |
| 20260504175918 | 68 | 287 | 3.5 | 4.3 | 0.00 | 0.00 | 0.00 | 58 | 1012.7 |
| 20260504175415 | 68 | 286 | 3.5 | 6.1 | 0.00 | 0.00 | 0.00 | 59 | 1012.4 |
| 20260504174913 | 69 | 286 | 4.3 | 6.1 | 0.00 | 0.00 | 0.00 | 57 | 1012.4 |
| 20260504174410 | 70 | 351 | 2.6 | 4.3 | 0.00 | 0.00 | 0.00 | 57 | 1011.9 |
| 20260504173907 | 71 | 292 | 1.7 | 1.7 | 0.00 | 0.00 | 0.00 | 58 | 1012.1 |
| 20260504173403 | 71 | 287 | 6.1 | 7.8 | 0.00 | 0.00 | 0.00 | 55 | 1011.8 |
| 20260504172901 | 70 | 301 | 5.2 | 7.0 | 0.00 | 0.00 | 0.00 | 57 | 1011.5 |
| 20260504172357 | 70 | 286 | 0.9 | 2.6 | 0.00 | 0.00 | 0.00 | 59 | 1011.7 |
| 20260504171853 | 69 | 304 | 2.6 | 2.6 | 0.00 | 0.00 | 0.00 | 57 | 1011.8 |
| 20260504171351 | 70 | 286 | 3.5 | 5.2 | 0.00 | 0.00 | 0.00 | 59 | 1011.7 |
| 20260504170848 | 69 | 293 | 4.3 | 7.0 | 0.00 | 0.00 | 0.00 | 59 | 1011.8 |
| 20260504170344 | 68 | 7 | 5.2 | 6.1 | 0.00 | 0.00 | 0.00 | 60 | 1012.0 |
| 20260504160303 | 66 | 329 | 1.7 | 4.3 | 0.00 | 0.00 | 0.00 | 64 | 1012.6 |
| 20260504150728 | 62 | 287 | 3.5 | 6.1 | 0.00 | 0.00 | 0.00 | 71 | 1013.5 |
| 20260504150225 | 61 | 287 | 0.0 | 0.9 | 0.00 | 0.00 | 0.00 | 72 | 1013.7 |
| 20260504141154 | 58 | 331 | 4.3 | 6.1 | 0.00 | 0.00 | 0.00 | 75 | 1014.0 |
| 20260504140651 | 58 | 287 | 5.2 | 6.1 | 0.00 | 0.00 | 0.00 | 76 | 1014.0 |
| 20260504140146 | 58 | 300 | 4.3 | 6.1 | 0.00 | 0.00 | 0.00 | 76 | 1014.2 |
| 20260504130614 | 55 | 287 | 6.1 | 8.7 | 0.00 | 0.00 | 0.00 | 76 | 1014.4 |
| 20260504130111 | 55 | 290 | 4.3 | 7.0 | 0.00 | 0.00 | 0.00 | 75 | 1014.5 |
| 20260504110503 | 51 | 301 | 0.9 | 1.7 | 0.00 | 0.00 | 0.00 | 71 | 1014.0 |
| 20260504100419 | 49 | 41 | 0.0 | 0.9 | 0.00 | 0.00 | 0.00 | 73 | 1013.8 |
| 20260504081812 | 47 | 38 | 0.0 | 0.0 | 0.00 | 0.00 | 0.00 | 79 | 1014.5 |
| 20260504081309 | 46 | 38 | 0.0 | 0.0 | 0.00 | 0.00 | 0.00 | 80 | 1014.1 |
| 20260504080805 | 46 | 38 | 0.0 | 0.0 | 0.00 | 0.00 | 0.00 | 80 | 1014.2 |
| 20260504080301 | 46 | 38 | 0.0 | 0.0 | 0.00 | 0.00 | 0.00 | 80 | 1014.2 |
| 20260504070229 | 48 | 38 | 0.0 | 0.0 | 0.00 | 0.00 | 0.00 | 77 | 1014.4 |
| 20260504060149 | 52 | 343 | 0.0 | 0.9 | 0.00 | 0.00 | 0.00 | 63 | 1015.2 |
| 20260504050618 | 55 | 309 | 0.9 | 0.9 | 0.00 | 0.00 | 0.00 | 55 | 1015.8 |
| 20260504050115 | 55 | 302 | 0.9 | 0.9 | 0.00 | 0.00 | 0.00 | 57 | 1015.8 |
| 20260504045612 | 55 | 339 | 0.0 | 0.0 | 0.00 | 0.00 | 0.00 | 59 | 1015.8 |
| 20260504045107 | 55 | 288 | 1.7 | 2.6 | 0.00 | 0.00 | 0.00 | 58 | 1015.1 |
| 20260504044605 | 55 | 299 | 3.5 | 4.3 | 0.00 | 0.00 | 0.00 | 59 | 1015.2 |
| 20260504044101 | 54 | 287 | 3.5 | 4.3 | 0.00 | 0.00 | 0.00 | 60 | 1015.4 |
| 20260504043559 | 53 | 290 | 3.5 | 5.2 | 0.00 | 0.00 | 0.00 | 62 | 1015.3 |
| 20260504043055 | 52 | 312 | 0.9 | 0.9 | 0.00 | 0.00 | 0.00 | 74 | 1015.7 |
| 20260504042552 | 52 | 311 | 0.9 | 0.9 | 0.00 | 0.00 | 0.00 | 78 | 1016.0 |
| 20260504042049 | 52 | 357 | 0.0 | 0.0 | 0.00 | 0.00 | 0.00 | 76 | 1016.0 |
| 20260504041545 | 52 | 348 | 0.0 | 0.0 | 0.00 | 0.00 | 0.00 | 74 | 1016.1 |
| 20260504041041 | 52 | 40 | 0.0 | 0.0 | 0.00 | 0.00 | 0.00 | 72 | 1015.8 |
| 20260504040539 | 52 | 30 | 0.0 | 0.0 | 0.00 | 0.00 | 0.00 | 72 | 1016.0 |
| 20260504040035 | 52 | 334 | 0.0 | 0.0 | 0.00 | 0.00 | 0.00 | 74 | 1016.6 |
| 20260504035532 | 52 | 333 | 0.0 | 0.9 | 0.00 | 0.00 | 0.00 | 74 | 1016.3 |
| 20260504035029 | 52 | 34 | 0.0 | 0.0 | 0.00 | 0.00 | 0.00 | 73 | 1016.1 |
| 20260504034527 | 52 | 32 | 0.0 | 0.0 | 0.00 | 0.00 | 0.00 | 72 | 1016.1 |
| 20260504034023 | 53 | 43 | 0.9 | 0.9 | 0.00 | 0.00 | 0.00 | 73 | 1016.2 |
| 20260504033521 | 53 | 348 | 0.0 | 0.0 | 0.00 | 0.00 | 0.00 | 71 | 1016.3 |
| 20260504033018 | 52 | 348 | 0.0 | 0.0 | 0.00 | 0.00 | 0.00 | 69 | 1016.2 |
| 20260504032515 | 52 | 349 | 0.0 | 0.0 | 0.00 | 0.00 | 0.00 | 70 | 1015.9 |
| 20260504032012 | 52 | 349 | 0.0 | 0.0 | 0.00 | 0.00 | 0.00 | 69 | 1016.0 |
| 20260504031509 | 52 | 349 | 0.0 | 0.0 | 0.00 | 0.00 | 0.00 | 71 | 1016.2 |
| 20260504031005 | 53 | 33 | 0.9 | 0.9 | 0.00 | 0.00 | 0.00 | 69 | 1016.1 |
| 20260504030503 | 53 | 339 | 0.0 | 0.0 | 0.00 | 0.00 | 0.00 | 70 | 1016.0 |
| 20260504025958 | 53 | 24 | 0.0 | 0.0 | 0.00 | 0.00 | 0.00 | 67 | 1016.0 |
| 20260504025456 | 53 | 30 | 0.0 | 0.0 | 0.00 | 0.00 | 0.00 | 66 | 1016.0 |
| 20260504024952 | 53 | 29 | 0.0 | 0.0 | 0.00 | 0.00 | 0.00 | 66 | 1016.1 |
| 20260504024449 | 53 | 357 | 0.0 | 0.0 | 0.00 | 0.00 | 0.00 | 66 | 1016.2 |
| 20260504023946 | 54 | 326 | 0.9 | 0.9 | 0.00 | 0.00 | 0.00 | 64 | 1016.4 |
| 20260504023443 | 54 | 351 | 0.0 | 0.0 | 0.00 | 0.00 | 0.00 | 63 | 1016.3 |
| 20260504022938 | 54 | 354 | 0.0 | 0.0 | 0.00 | 0.00 | 0.00 | 64 | 1016.2 |
| 20260504022435 | 54 | 354 | 0.0 | 0.0 | 0.00 | 0.00 | 0.00 | 63 | 1016.0 |
| 20260504021932 | 54 | 344 | 0.0 | 0.0 | 0.00 | 0.00 | 0.00 | 62 | 1016.1 |
| 20260504021429 | 54 | 33 | 0.0 | 0.0 | 0.00 | 0.00 | 0.00 | 63 | 1015.8 |
| 20260504020926 | 54 | 354 | 0.0 | 0.0 | 0.00 | 0.00 | 0.00 | 63 | 1016.1 |
| 20260504020423 | 54 | 349 | 0.0 | 0.0 | 0.00 | 0.00 | 0.00 | 62 | 1016.1 |
| 20260504015920 | 54 | 28 | 0.0 | 0.0 | 0.00 | 0.00 | 0.00 | 62 | 1016.2 |
| 20260504015415 | 55 | 21 | 0.0 | 0.0 | 0.00 | 0.00 | 0.00 | 61 | 1015.9 |
| 20260504014912 | 55 | 4 | 0.0 | 0.0 | 0.00 | 0.00 | 0.00 | 60 | 1015.8 |
| 20260504014408 | 55 | 38 | 0.0 | 0.0 | 0.00 | 0.00 | 0.00 | 61 | 1015.8 |
| 20260504013905 | 55 | 4 | 0.0 | 0.0 | 0.00 | 0.00 | 0.00 | 59 | 1015.5 |
| 20260504013403 | 55 | 351 | 0.0 | 0.0 | 0.00 | 0.00 | 0.00 | 56 | 1015.6 |
| 20260504012859 | 55 | 336 | 0.0 | 0.0 | 0.00 | 0.00 | 0.00 | 57 | 1015.4 |
| 20260504012357 | 56 | 344 | 0.9 | 0.9 | 0.00 | 0.00 | 0.00 | 60 | 1015.2 |
| 20260504011854 | 56 | 14 | 0.0 | 0.0 | 0.00 | 0.00 | 0.00 | 59 | 1015.2 |
| 20260504011351 | 56 | 42 | 0.0 | 0.0 | 0.00 | 0.00 | 0.00 | 57 | 1015.0 |
| 20260504010846 | 56 | 42 | 0.0 | 0.0 | 0.00 | 0.00 | 0.00 | 55 | 1015.4 |
| 20260504010342 | 56 | 350 | 0.9 | 0.9 | 0.00 | 0.00 | 0.00 | 53 | 1015.4 |
| 20260504005839 | 56 | 29 | 0.0 | 0.0 | 0.00 | 0.00 | 0.00 | 54 | 1015.3 |
| 20260504005336 | 57 | 350 | 0.0 | 0.9 | 0.00 | 0.00 | 0.00 | 52 | 1015.6 |
| 20260504004834 | 57 | 351 | 0.0 | 0.9 | 0.00 | 0.00 | 0.00 | 54 | 1015.4 |
| 20260504004331 | 57 | 352 | 0.0 | 0.0 | 0.00 | 0.00 | 0.00 | 52 | 1015.6 |
| 20260504003827 | 57 | 352 | 0.0 | 0.0 | 0.00 | 0.00 | 0.00 | 47 | 1015.6 |
| 20260504003324 | 57 | 352 | 0.0 | 0.0 | 0.00 | 0.00 | 0.00 | 49 | 1015.5 |
| 20260504002821 | 58 | 352 | 0.0 | 0.0 | 0.00 | 0.00 | 0.00 | 46 | 1015.7 |
| 20260504002318 | 58 | 353 | 0.0 | 0.0 | 0.00 | 0.00 | 0.00 | 44 | 1015.7 |
| 20260504001816 | 59 | 353 | 0.0 | 0.0 | 0.00 | 0.00 | 0.00 | 45 | 1015.6 |
| 20260504001313 | 59 | 45 | 0.0 | 0.0 | 0.00 | 0.00 | 0.00 | 41 | 1015.4 |
| 20260504000810 | 59 | 351 | 0.0 | 0.0 | 0.00 | 0.00 | 0.00 | 39 | 1015.5 |
| 20260504000307 | 60 | 22 | 0.0 | 0.0 | 0.00 | 0.00 | 0.00 | 41 | 1015.6 |
| 20260503235804 | 60 | 353 | 0.0 | 0.0 | 0.00 | 0.00 | 0.00 | 38 | 1015.4 |
| 20260503235301 | 60 | 333 | 0.0 | 0.0 | 0.00 | 0.00 | 0.00 | 37 | 1015.7 |
| 20260503234759 | 60 | 51 | 0.0 | 0.9 | 0.00 | 0.00 | 0.00 | 38 | 1015.7 |
| 20260503234257 | 60 | 333 | 0.0 | 0.0 | 0.00 | 0.00 | 0.00 | 38 | 1015.8 |
| 20260503233754 | 61 | 287 | 0.9 | 1.7 | 0.00 | 0.00 | 0.00 | 36 | 1015.7 |
| 20260503233249 | 61 | 287 | 1.7 | 2.6 | 0.00 | 0.00 | 0.00 | 35 | 1015.7 |
| 20260503232746 | 61 | 291 | 1.7 | 1.7 | 0.00 | 0.00 | 0.00 | 36 | 1015.5 |
| 20260503232244 | 62 | 287 | 2.6 | 4.3 | 0.00 | 0.00 | 0.00 | 36 | 1015.7 |
| 20260503231742 | 62 | 296 | 1.7 | 1.7 | 0.00 | 0.00 | 0.00 | 35 | 1015.6 |
| 20260503231238 | 62 | 299 | 0.9 | 0.9 | 0.00 | 0.00 | 0.00 | 35 | 1015.7 |
| 20260503230734 | 62 | 293 | 0.9 | 0.9 | 0.00 | 0.00 | 0.00 | 35 | 1015.6 |
| 20260503230232 | 63 | 295 | 1.7 | 1.7 | 0.00 | 0.00 | 0.00 | 33 | 1015.7 |
| 20260503225729 | 62 | 287 | 1.7 | 1.7 | 0.00 | 0.00 | 0.00 | 36 | 1015.9 |
| 20260503225229 | 62 | 287 | 1.7 | 4.3 | 0.00 | 0.00 | 0.00 | 34 | 1016.0 |
| 20260503224726 | 62 | 303 | 4.3 | 5.2 | 0.00 | 0.00 | 0.00 | 34 | 1016.1 |
| 20260503224224 | 62 | 287 | 2.6 | 2.6 | 0.00 | 0.00 | 0.00 | 34 | 1016.2 |
| 20260503223721 | 62 | 47 | 0.9 | 0.9 | 0.00 | 0.00 | 0.00 | 37 | 1016.3 |
| 20260503223219 | 62 | 287 | 3.5 | 4.3 | 0.00 | 0.00 | 0.00 | 35 | 1016.5 |
| 20260503222715 | 63 | 352 | 0.0 | 0.9 | 0.00 | 0.00 | 0.00 | 37 | 1016.1 |
| 20260503222213 | 62 | 310 | 0.9 | 1.7 | 0.00 | 0.00 | 0.00 | 36 | 1016.5 |
| 20260503221711 | 62 | 288 | 5.2 | 6.1 | 0.00 | 0.00 | 0.00 | 33 | 1016.2 |
| 20260503221209 | 64 | 291 | 4.3 | 6.1 | 0.00 | 0.00 | 0.00 | 33 | 1016.3 |
| 20260503220705 | 63 | 0 | 3.5 | 5.2 | 0.00 | 0.00 | 0.00 | 33 | 1016.5 |
| 20260503220202 | 63 | 287 | 6.1 | 7.8 | 0.00 | 0.00 | 0.00 | 34 | 1016.4 |
| 20260503215659 | 63 | 4 | 6.1 | 7.8 | 0.00 | 0.00 | 0.00 | 34 | 1016.5 |
| 20260503215155 | 64 | 9 | 3.5 | 4.3 | 0.00 | 0.00 | 0.00 | 36 | 1016.4 |
| 20260503214654 | 63 | 318 | 0.9 | 0.9 | 0.00 | 0.00 | 0.00 | 33 | 1016.2 |
| 20260503214149 | 64 | 300 | 1.7 | 1.7 | 0.00 | 0.00 | 0.00 | 35 | 1016.4 |
| 20260503213644 | 64 | 319 | 2.6 | 2.6 | 0.00 | 0.00 | 0.00 | 33 | 1016.2 |
| 20260503213140 | 64 | 287 | 2.6 | 2.6 | 0.00 | 0.00 | 0.00 | 38 | 1016.1 |
| 20260503212637 | 64 | 34 | 1.7 | 2.6 | 0.00 | 0.00 | 0.00 | 33 | 1016.3 |
| 20260503212135 | 64 | 318 | 2.6 | 2.6 | 0.00 | 0.00 | 0.00 | 36 | 1016.5 |
| 20260503211632 | 65 | 355 | 1.7 | 1.7 | 0.00 | 0.00 | 0.00 | 36 | 1016.3 |
| 20260503211127 | 65 | 286 | 3.5 | 4.3 | 0.00 | 0.00 | 0.00 | 34 | 1016.6 |
| 20260503210624 | 64 | 355 | 2.6 | 4.3 | 0.00 | 0.00 | 0.00 | 36 | 1016.3 |
| 20260503210121 | 65 | 286 | 1.7 | 2.6 | 0.00 | 0.00 | 0.00 | 37 | 1016.6 |
| 20260503205616 | 65 | 295 | 3.5 | 5.2 | 0.00 | 0.00 | 0.00 | 34 | 1016.5 |
| 20260503205113 | 65 | 320 | 6.1 | 7.0 | 0.00 | 0.00 | 0.00 | 32 | 1016.8 |
| 20260503204610 | 65 | 330 | 5.2 | 7.0 | 0.00 | 0.00 | 0.00 | 33 | 1016.7 |
| 20260503204107 | 64 | 297 | 0.0 | 0.9 | 0.00 | 0.00 | 0.00 | 34 | 1016.7 |
| 20260503203604 | 64 | 286 | 3.5 | 5.2 | 0.00 | 0.00 | 0.00 | 37 | 1017.0 |
| 20260503203102 | 64 | 286 | 4.3 | 6.1 | 0.00 | 0.00 | 0.00 | 34 | 1016.9 |
| 20260503202559 | 64 | 286 | 6.1 | 9.6 | 0.00 | 0.00 | 0.00 | 34 | 1017.1 |
| 20260503202057 | 64 | 9 | 0.0 | 0.0 | 0.00 | 0.00 | 0.00 | 34 | 1017.0 |
| 20260503201555 | 65 | 289 | 2.6 | 4.3 | 0.00 | 0.00 | 0.00 | 37 | 1017.3 |
| 20260503201052 | 64 | 286 | 4.3 | 7.0 | 0.00 | 0.00 | 0.00 | 34 | 1017.4 |